Regional Weather Roundup
Issued by NWS

Home | Current Version | Previous Version | Text Only | Print | Product List | Glossary On
Versions: 1 2 3 4 5 6 7 8 9 10 11 12 13 14 15 16 17 18 19 20 21 22 23 24 25 26 27 28 29 30 31 32 33 34 35 36 37 38 39 40 41 42 43 44 45 46 47 48 49 50
157
ASUS43 KOAX 041102
RWRNE

WEATHER ROUNDUP FOR NEBRASKA
NATIONAL WEATHER SERVICE OMAHA NE
500 AM CST SUN DEC 04 2016

NOTES: SATELLITE DATA IS BEING USED TO AUGMENT CLOUD COVER ABOVE
       12000 FEET.
       "FAIR" INDICATES FEW OR NO CLOUDS BELOW 12,000 FEET WITH NO
       SIGNIFICANT WEATHER AND/OR OBSTRUCTIONS TO VISIBILITY.

  * THESE STATIONS DO NOT REPORT WEATHER SUCH AS RAIN...SNOW OR FOG.

NEZ001>004-019>022-054>056-041200-
NEBRASKA PANHANDLE

CITY           SKY/WX    TMP DP  RH WIND       PRES   REMARKS
SCOTTSBLUFF    CLEAR     20  12  71 NW7       30.00F WCI  11
ALLIANCE       CLEAR     17  13  84 W9        29.97F WCI   6
CHADRON        CLOUDY    25  16  68 W6        29.97F WCI  18
KIMBALL        CLEAR     24  15  70 W12G18    30.01R WCI  13
SIDNEY         CLEAR     21  13  71 W15       30.00F WCI   8
$$

NEZ057>060-069>072-079>082-041200-
SOUTHWEST NEBRASKA

CITY           SKY/WX    TMP DP  RH WIND       PRES   REMARKS
NORTH PLATTE   CLEAR     19  15  84 NW7       29.98F WCI  10
IMPERIAL       CLEAR     24  14  65 W13       30.01S WCI  12
LEXINGTON      CLEAR     25  23  93 NW8       29.98S WCI  16
MCCOOK         CLEAR     26  18  71 W13       30.00F WCI  15
OGALLALA       CLEAR     25  17  74 W5        30.00S WCI  19
$$

NEZ005>010-023>029-035>040-094-041200-
NORTH CENTRAL NEBRASKA

CITY           SKY/WX    TMP DP  RH WIND       PRES   REMARKS
VALENTINE      PTCLDY    19  15  84 SW7       29.92F WCI  10
AINSWORTH      CLEAR     26  22  85 CALM      29.92S
BROKEN BOW     CLEAR     32  24  72 NW6       29.94F WCI  26
O`NEILL        CLEAR     28  24  86 W5        29.91S WCI  22
ORD            CLEAR     27  23  85 SW3       29.94F
THEDFORD       CLEAR     25  20  81 W8        29.96R WCI  16
$$

NEZ041-046>049-061>064-073>077-083>087-041200-
SOUTH CENTRAL NEBRASKA

CITY           SKY/WX    TMP DP  RH WIND       PRES   REMARKS
GRAND ISLAND   PTCLDY    30  30 100 W9        29.97F WCI  22
AURORA         CLOUDY    31  31 100 W9        29.96F FOG     WCI  23
HASTINGS       CLOUDY    32  31  96 W12       29.98F FOG     WCI  23
HEBRON         CLOUDY    32  32  99 W3        30.00F
HOLDREGE       MOCLDY    31  30  97 W6        29.97S WCI  25
KEARNEY *      CLOUDY    30  27  86 W3        29.97F
YORK           CLOUDY    32  32 100 W8        29.97F WCI  25
$$

NEZ011>018-030>034-042>045-041200-
NORTHEAST NEBRASKA

CITY           SKY/WX    TMP DP  RH WIND       PRES   REMARKS
NORFOLK        CLEAR     30  28  92 SW6       29.92F WCI  24
ALBION         CLEAR     30  28  91 NW3       29.95R
BLAIR          CLOUDY    33  32  96 W7        29.98S WCI  27
FREMONT        CLOUDY    33  33 100 CALM      29.99S
TEKAMAH        CLOUDY    33  31  92 S3        29.98F
WAYNE          CLEAR     31  30  96 S6        29.93F WCI  25
$$

NEZ050>053-065>068-078-088>093-041200-
SOUTHEAST NEBRASKA

CITY           SKY/WX    TMP DP  RH WIND       PRES   REMARKS
LINCOLN        CLOUDY    33  32  96 SW3       30.01F
OMAHA EPPLEY   CLOUDY    34  30  85 W6        30.00F WCI  29
BEATRICE       CLOUDY    33  33  99 NW8       30.00F FOG     WCI  26
FALLS CITY     LGT RAIN  38  38 100 SW7       30.01F WCI  33
NEBRASKA CITY  CLOUDY    35  35  99 W8        30.00S WCI  28
PLATTSMOUTH    CLOUDY    33  32  93 W7        29.99F FOG     WCI  27
$$

NEZ044-045-051>053-067-041200-
OMAHA AREA

CITY           SKY/WX    TMP DP  RH WIND       PRES   REMARKS
OMAHA EPPLEY   CLOUDY    34  30  85 W6        30.00F WCI  29
BLAIR          CLOUDY    33  32  96 W7        29.98S WCI  27
FREMONT        CLOUDY    33  33 100 CALM      29.99S
MILLARD        CLOUDY    34  32  92 W5        30.00F WCI  30
OFFUTT AFB     CLOUDY    34  34 100 W7        29.99F WCI  28
PLATTSMOUTH    CLOUDY    33  32  93 W7        29.99F FOG     WCI  27
WAHOO          CLOUDY    33  32  96 SW5       29.98F WCI  29
$$




USA.gov is the U.S. government's official web portal to all federal, state and local government web resources and services.